Showing default

TKSAT 1, 39481

Orbit data source: Space-Track

TKSAT 1, 39481 is a payload satellite owned by AE Boliviana (BO) in GEO that was launched on Fri, 20 Dec 2013 UTC via a CHANG ZHENG 3B launch vehicle from the Xichang Space Center, China (XSC). Payload-class satellites include a variety of spacecraft equipped with specific instruments for various scientific and technological missions. These include communications satellites like Starlink; space stations such as the ISS; scientific satellites like the Hubble; Earth observation satellites from companies like Planet Labs, Umbra, and HawkEye 360; GPS; miniature CubeSats for education and research; and military/defense satellites.

Loading next visibility...
Identifier
39481, 2013-075A
Orbit
GEO
Country
Flag of BOBO / BOL
Related business
Manufacturer
CAST
Mission
Operational Civil Communications
Bus & Motor
DFH-4, DFH-4 LAE
Mass
~5,086 kg wet, ~2,500 kg dry
Launch date (UTC)
2013-12-20 (12 years ago)
Launch vehicle
CHANG ZHENG 3B
Launch site
Xichang Space Center, China (XSC)
Object type
Payload
Rocket body
Debris
Shape & HBR
Box + 2 Pan, 15.0 m
Radar Cross Section
34.063 m², Large (>1 m²)

Expand to show TLE details & history
Last TLE update: 14 hours ago

TLE from 14 hours ago
0 TKSAT 1
1 39481U 13075A   25296.12231409  .00000000  00000-0  00000+0 0  9996
2 39481   0.0225  64.6762 0002298 153.1583 130.7885  1.00270647 43213
Epoch: 2025-10-23T02:56Z
TLE epoch observation values (Epoch: 2025-10-23T02:56:07.937Z)
Latitude
-0.00225°
Longitude
-87.20995°
Altitude
35,792.771 km
Speed
3.074 km/s
True Right ascension
23h 14m 26s
True Declination
0° 00' 08"
Sunlit
Object was in daylight at epoch
Visualization orbit readout
Latitude
Unknown
Longitude
Unknown
Altitude
Unknown
Speed
Unknown
Apparent Right ascension
Unknown
Apparent Declination
Unknown
Sunlit
N/A
Visualization observer readout
Local Sidereal Time
12:20:55
Azimuth
Unknown
Elevation
Unknown
Doppler factor
Unknown
Orbital elements
Apogee altitude
35,797.674 km
Perigee altitude
35,778.295 km
Semi-major axis
42,166.121 km
Eccentricity
0.00023
Inclination
0.0225°
RAAN
64.6762°
Arg. of periapsis
153.1583°
True anomaly
130.80843°
Mean anomaly
130.7885°
Eccentric anomaly
130.79847°
Mean motion
0.25067 °/min
Orbital period
1,436.17 mins
BSTAR
0
Loading maneuver chart data...
Computing Atmospheric mass density...
Loading historical data...
Loading historical data...
Loading historical data...
Loading historical data...
Loading historical data...
Loading historical data...
Loading historical data...
Other satellites on launch #75 in the year 2013 (2013-12-20 UTC)

Documentation

Showing up to 5 results
|